WetterOnline ( https://www.wetteronline.de )

Wetter aktuell Einbeck

Aktuelles Wetter: Alfeld (148m)

6-stündlich | Neueste Meldungen
Ortszeit Temperatur Wetter
Mo, 15.07. 20:00 23.6° C wolkig
Mo, 15.07. 14:00 25.0° C leicht bewölkt
Mo, 15.07. 8:00 15.5° C wolkig
Mo, 15.07. 2:00 14.2° C bewölkt
So, 14.07. 20:00 20.1° C bewölkt
So, 14.07. 14:00 22.2° C wolkig
So, 14.07. 8:00 12.8° C bewölkt
So, 14.07. 2:00 10.5° C wolkenlos
Ortszeit Temperatur Wetter
Mo, 15.07. 21:30 18.2° C leicht bewölkt
Mo, 15.07. 21:20 18.2° C leicht bewölkt
Mo, 15.07. 21:10 18.8° C leicht bewölkt
Mo, 15.07. 21:00 20.0° C fast wolkenlos
Mo, 15.07. 20:50 20.0° C fast wolkenlos
Mo, 15.07. 20:40 21.1° C leicht bewölkt
Mo, 15.07. 20:30 21.7° C leicht bewölkt
Mo, 15.07. 20:00 23.6° C wolkig
Mo, 15.07. 19:30 22.4° C leicht bewölkt
Mo, 15.07. 19:00 25.2° C leicht bewölkt
Mo, 15.07. 18:30 25.6° C wolkig
Ortszeit Relative Feuchte Sichtweite
Mo, 15.07. 20:00 61% >70 km
Mo, 15.07. 14:00 45% 45 km
Mo, 15.07. 8:00 82% 65 km
Mo, 15.07. 2:00 88% 60 km
So, 14.07. 20:00 66% >70 km
So, 14.07. 14:00 54% >70 km
So, 14.07. 8:00 91% 35 km
So, 14.07. 2:00 93% 35 km
Ortszeit Relative Feuchte Sichtweite
Mo, 15.07. 21:30 78% >70 km
Mo, 15.07. 21:20 78% -
Mo, 15.07. 21:10 75% -
Mo, 15.07. 21:00 73% >70 km
Mo, 15.07. 20:50 73% -
Mo, 15.07. 20:40 70% -
Mo, 15.07. 20:30 68% >70 km
Mo, 15.07. 20:00 61% >70 km
Mo, 15.07. 19:30 60% >70 km
Mo, 15.07. 19:00 51% 55 km
Mo, 15.07. 18:30 53% 50 km
Ortszeit Niederschlagsmenge Niederschlagsart
Mo, 15.07. 20:00 0.0 l/m2 in 12 Std. -
Mo, 15.07. 14:00 0.0 l/m2 in 6 Std. -
Mo, 15.07. 8:00 0.0 l/m2 in 12 Std. -
Mo, 15.07. 2:00 0.0 l/m2 in 6 Std. -
So, 14.07. 20:00 0.1 l/m2 in 12 Std. Regen
So, 14.07. 14:00 0.1 l/m2 in 6 Std. Regen
So, 14.07. 8:00 0.0 l/m2 in 12 Std. -
So, 14.07. 2:00 0.0 l/m2 in 6 Std. -
Ortszeit Niederschlagsmenge Niederschlagsart
Mo, 15.07. 21:30 0.0 l/m2 in 30 Min -
Mo, 15.07. 21:20 keine Meldung -
Mo, 15.07. 21:10 keine Meldung -
Mo, 15.07. 21:00 0.0 l/m2 in 1 Std. -
Mo, 15.07. 20:50 keine Meldung -
Mo, 15.07. 20:40 keine Meldung -
Mo, 15.07. 20:30 0.0 l/m2 in 30 Min -
Mo, 15.07. 20:00 0.0 l/m2 in 1 Std. -
Mo, 15.07. 19:30 0.0 l/m2 in 30 Min -
Mo, 15.07. 19:00 0.0 l/m2 in 1 Std. -
Mo, 15.07. 18:30 0.0 l/m2 in 30 Min -
Ortszeit Stärke Spitze Richtung
km/h Bft. km/h Grad Sektor
Mo, 15.07. 20:00 0 0 25 - -
Mo, 15.07. 14:00 7 2 22 190° S
Mo, 15.07. 8:00 7 2 11 140° SO
Mo, 15.07. 2:00 0 0 7 - -
So, 14.07. 20:00 6 1 33 160° S
So, 14.07. 14:00 7 2 22 170° S
So, 14.07. 8:00 9 2 17 120° SO
So, 14.07. 2:00 7 2 14 130° SO
Ortszeit Stärke Spitze Richtung
km/h Bft. km/h Grad Sektor
Mo, 15.07. 21:30 0 0 4 - -
Mo, 15.07. 21:20 2 1 - 40° NO
Mo, 15.07. 21:10 2 1 - 230° SW
Mo, 15.07. 21:00 2 1 4 240° SW
Mo, 15.07. 20:50 2 1 - 240° SW
Mo, 15.07. 20:40 0 0 - 240° SW
Mo, 15.07. 20:30 2 1 4 170° S
Mo, 15.07. 20:00 0 0 7 - -
Mo, 15.07. 19:30 4 1 7 160° S
Mo, 15.07. 19:00 4 1 11 170° S
Mo, 15.07. 18:30 4 1 11 170° S
Ortszeit Untergrenze Bedeckung Gattung
total tief tief mittel hoch
Mo, 15.07. 20:00 7800 m 8/8 0/8 - - -
Mo, 15.07. 14:00 9000 m 4/8 0/8 - - -
Mo, 15.07. 8:00 1500 m 6/8 6/8 - - -
Mo, 15.07. 2:00 1800 m 7/8 7/8 - - -
So, 14.07. 20:00 2100 m 8/8 7/8 - - -
So, 14.07. 14:00 2700 m 7/8 1/8 - - -
So, 14.07. 8:00 2100 m 8/8 7/8 - - -
So, 14.07. 2:00 - 0/8 0/8 - - -
Ortszeit Bedeckungsgrad in Achtel und Wolkenuntergrenze
Mo, 15.07. 21:30 3(9000m)
Mo, 15.07. 21:20 3(9000m)
Mo, 15.07. 21:10 2
Mo, 15.07. 21:00 1(10500m)
Mo, 15.07. 20:50 1(10500m)
Mo, 15.07. 20:40 2
Mo, 15.07. 20:30 1(7500m) 6(9000m) 6(10500m)
Mo, 15.07. 20:00 6(7800m) 7(8700m) 8(9000m)
Mo, 15.07. 19:30 3(8100m) 5(10500m)
Mo, 15.07. 19:00 1(8100m) 5(9000m) 8(10500m)
Mo, 15.07. 18:30 8(7200m)
Ortszeit Luftdruck NN (hPa) Tendenz (hPa in 3 Std.)
Mo, 15.07. 20:00 1010 - 1,1
Mo, 15.07. 14:00 1013 - 0,7
Mo, 15.07. 8:00 1014 + 0,5
Mo, 15.07. 2:00 1014 + 0,5
So, 14.07. 20:00 1013 - 0,1
So, 14.07. 14:00 1013 - 0,7
So, 14.07. 8:00 1014 + 0,4
So, 14.07. 2:00 1014 + 0,1
Ortszeit Luftdruck NN (hPa) Tendenz (hPa in 3 Std.)
Mo, 15.07. 21:30 1010 - 0,5
Mo, 15.07. 21:20 1010 keine Meldung
Mo, 15.07. 21:10 1010 keine Meldung
Mo, 15.07. 21:00 1010 - 0,7
Mo, 15.07. 20:50 1010 keine Meldung
Mo, 15.07. 20:40 1010 keine Meldung
Mo, 15.07. 20:30 1010 - 0,9
Mo, 15.07. 20:00 1010 - 1,1
Mo, 15.07. 19:30 1010 - 1,3
Mo, 15.07. 19:00 1010 - 1,6
Mo, 15.07. 18:30 1010 - 1,6
Ortszeit Schneehöhe (cm)
Mo, 15.07. 20:00 0
Mo, 15.07. 14:00 0
Mo, 15.07. 8:00 0
Mo, 15.07. 2:00 0
So, 14.07. 20:00 0
So, 14.07. 14:00 0
So, 14.07. 8:00 0
So, 14.07. 2:00 0
Ortszeit Schneehöhe (cm)
Mo, 15.07. 21:30 0
Mo, 15.07. 21:20 0
Mo, 15.07. 21:10 -
Mo, 15.07. 21:00 0
Mo, 15.07. 20:50 0
Mo, 15.07. 20:40 -
Mo, 15.07. 20:30 0
Mo, 15.07. 20:00 0
Mo, 15.07. 19:30 0
Mo, 15.07. 19:00 0
Mo, 15.07. 18:30 0
Link zu dieser Seite / Seite empfehlen

Das Wetter in ...